TimeCDT,TemperatureF,Dew PointF,Humidity,Sea Level PressureIn,VisibilityMPH,Wind Direction,Wind SpeedMPH,Gust SpeedMPH,PrecipitationIn,Events,Conditions,WindDirDegrees,DateUTC
12:15 AM,74.3,72.7,95,29.98,7.0,Calm,Calm,-,N/A,,Mostly Cloudy,0,2013-08-15 05:15:00
12:35 AM,73.9,72.5,95,29.97,7.0,Calm,Calm,-,N/A,,Mostly Cloudy,0,2013-08-15 05:35:00
12:55 AM,74.1,72.5,95,29.96,5.0,Calm,Calm,-,N/A,,Mostly Cloudy,0,2013-08-15 05:55:00
1:15 AM,73.6,72.5,96,29.96,5.0,Calm,Calm,-,N/A,,Overcast,0,2013-08-15 06:15:00
1:35 AM,73.9,72.7,96,29.96,5.0,Calm,Calm,-,N/A,,Overcast,0,2013-08-15 06:35:00
1:55 AM,74.3,72.3,94,29.95,7.0,NE,5.8,-,N/A,,Overcast,40,2013-08-15 06:55:00
2:15 AM,73.4,68.7,85,29.95,10.0,NE,3.5,-,N/A,,Mostly Cloudy,50,2013-08-15 07:15:00
2:35 AM,72.5,68.0,86,29.94,10.0,NE,5.8,-,N/A,,Scattered Clouds,50,2013-08-15 07:35:00
2:55 AM,71.6,67.3,86,29.95,10.0,Calm,Calm,-,N/A,,Scattered Clouds,0,2013-08-15 07:55:00
3:15 AM,71.6,66.9,85,29.95,10.0,NNE,4.6,-,N/A,,Mostly Cloudy,30,2013-08-15 08:15:00
3:35 AM,70.9,67.1,88,29.95,10.0,Calm,Calm,-,N/A,,Overcast,0,2013-08-15 08:35:00
3:55 AM,70.7,65.5,83,29.96,10.0,NNE,5.8,-,N/A,,Overcast,30,2013-08-15 08:55:00
4:15 AM,70.2,65.3,85,29.96,10.0,Calm,Calm,-,N/A,,Overcast,0,2013-08-15 09:15:00
4:35 AM,70.0,64.4,82,29.96,10.0,NNE,4.6,-,N/A,,Overcast,30,2013-08-15 09:35:00
4:55 AM,69.1,64.6,86,29.96,10.0,Calm,Calm,-,N/A,,Overcast,0,2013-08-15 09:55:00
5:15 AM,68.9,64.4,86,29.97,10.0,Calm,Calm,-,N/A,,Overcast,0,2013-08-15 10:15:00
5:35 AM,68.9,64.2,85,29.98,10.0,Calm,Calm,-,N/A,,Overcast,0,2013-08-15 10:35:00
5:55 AM,68.2,63.7,85,29.98,10.0,Calm,Calm,-,N/A,,Overcast,0,2013-08-15 10:55:00
6:15 AM,68.2,63.5,85,29.99,10.0,Calm,Calm,-,N/A,,Overcast,0,2013-08-15 11:15:00
6:35 AM,68.5,63.3,83,30.00,10.0,Calm,Calm,-,N/A,,Overcast,0,2013-08-15 11:35:00
6:55 AM,68.5,62.8,82,30.01,10.0,Calm,Calm,-,N/A,,Overcast,0,2013-08-15 11:55:00
7:15 AM,68.9,63.0,81,30.01,10.0,North,3.5,-,N/A,,Overcast,10,2013-08-15 12:15:00
7:35 AM,68.9,62.8,81,30.01,10.0,North,3.5,-,N/A,,Overcast,360,2013-08-15 12:35:00
7:55 AM,67.6,64.2,89,30.01,5.0,Calm,Calm,-,N/A,Rain,Light Rain,0,2013-08-15 12:55:00
8:15 AM,68.7,65.1,88,30.01,10.0,Calm,Calm,-,N/A,,Overcast,0,2013-08-15 13:15:00
8:35 AM,70.9,64.8,81,30.02,10.0,North,3.5,-,N/A,,Mostly Cloudy,10,2013-08-15 13:35:00
8:55 AM,71.6,65.1,80,30.02,10.0,Calm,Calm,-,N/A,,Mostly Cloudy,0,2013-08-15 13:55:00
9:15 AM,71.6,64.9,79,30.02,10.0,NNE,5.8,-,N/A,,Overcast,20,2013-08-15 14:15:00
9:35 AM,72.9,65.5,78,30.02,10.0,NNE,3.5,-,N/A,,Mostly Cloudy,20,2013-08-15 14:35:00
9:55 AM,72.5,65.8,80,30.03,10.0,Calm,Calm,-,N/A,,Overcast,0,2013-08-15 14:55:00
10:15 AM,73.8,66.7,79,30.03,10.0,Calm,Calm,-,N/A,,Overcast,0,2013-08-15 15:15:00
10:35 AM,74.3,66.9,78,30.03,10.0,Calm,Calm,-,N/A,,Overcast,0,2013-08-15 15:35:00
10:55 AM,75.0,67.3,77,30.03,10.0,North,3.5,-,N/A,,Overcast,360,2013-08-15 15:55:00
11:15 AM,76.1,68.2,76,30.03,10.0,Calm,Calm,-,N/A,,Overcast,0,2013-08-15 16:15:00
11:35 AM,77.2,68.5,75,30.03,10.0,Calm,Calm,-,N/A,,Mostly Cloudy,0,2013-08-15 16:35:00
11:55 AM,77.2,68.9,76,30.02,10.0,Calm,Calm,-,N/A,Rain,Light Rain,0,2013-08-15 16:55:00
12:15 PM,78.1,69.1,74,30.02,10.0,Calm,Calm,-,N/A,,Scattered Clouds,0,2013-08-15 17:15:00
12:35 PM,80.6,70.3,71,30.01,10.0,Calm,Calm,-,N/A,,Clear,0,2013-08-15 17:35:00
12:55 PM,82.2,71.1,69,30.01,10.0,Calm,Calm,-,N/A,,Clear,0,2013-08-15 17:55:00
1:15 PM,82.2,71.2,69,29.99,10.0,Calm,Calm,-,N/A,,Clear,0,2013-08-15 18:15:00
1:35 PM,82.6,70.9,68,29.99,10.0,Calm,Calm,-,N/A,,Clear,0,2013-08-15 18:35:00
1:55 PM,84.2,70.7,64,29.98,10.0,Calm,Calm,-,N/A,,Scattered Clouds,0,2013-08-15 18:55:00
2:15 PM,83.5,70.3,64,29.98,10.0,NW,3.5,-,N/A,,Mostly Cloudy,320,2013-08-15 19:15:00
2:35 PM,86.2,69.8,58,29.97,10.0,NNW,3.5,-,N/A,,Scattered Clouds,340,2013-08-15 19:35:00
2:55 PM,86.7,69.4,56,29.97,10.0,NNW,3.5,-,N/A,,Clear,340,2013-08-15 19:55:00
3:15 PM,86.5,66.9,52,29.96,10.0,Calm,Calm,-,N/A,,Scattered Clouds,0,2013-08-15 20:15:00
3:35 PM,87.1,68.0,53,29.95,10.0,NNE,5.8,-,N/A,,Scattered Clouds,30,2013-08-15 20:35:00
3:55 PM,87.8,67.8,51,29.95,10.0,NNE,5.8,-,N/A,,Mostly Cloudy,20,2013-08-15 20:55:00
4:15 PM,86.7,67.6,53,29.95,10.0,NNW,4.6,-,N/A,,Scattered Clouds,340,2013-08-15 21:15:00
4:35 PM,87.6,68.0,52,29.94,10.0,NE,5.8,-,N/A,,Scattered Clouds,40,2013-08-15 21:35:00
4:55 PM,88.2,68.4,52,29.93,10.0,NNE,4.6,-,N/A,,Scattered Clouds,30,2013-08-15 21:55:00
5:15 PM,87.1,65.7,49,29.93,10.0,Calm,Calm,-,N/A,,Clear,0,2013-08-15 22:15:00
5:35 PM,87.6,66.0,49,29.93,10.0,North,5.8,-,N/A,,Clear,350,2013-08-15 22:35:00
5:55 PM,87.3,66.2,49,29.93,10.0,Calm,Calm,-,N/A,,Clear,0,2013-08-15 22:55:00
6:15 PM,86.7,67.1,52,29.93,10.0,North,5.8,-,N/A,,Clear,350,2013-08-15 23:15:00
6:35 PM,85.3,67.5,55,29.93,10.0,North,5.8,-,N/A,,Clear,360,2013-08-15 23:35:00
6:55 PM,84.2,66.7,56,29.93,10.0,North,5.8,-,N/A,,Clear,360,2013-08-15 23:55:00
7:15 PM,82.8,67.8,60,29.93,10.0,North,4.6,-,N/A,,Clear,360,2013-08-16 00:15:00
7:35 PM,81.0,67.5,63,29.94,10.0,North,4.6,-,N/A,,Clear,360,2013-08-16 00:35:00
7:55 PM,79.0,67.5,68,29.94,10.0,North,3.5,-,N/A,,Clear,360,2013-08-16 00:55:00
8:15 PM,74.8,70.5,86,29.96,10.0,Calm,Calm,-,N/A,,Clear,0,2013-08-16 01:15:00
8:35 PM,73.4,70.3,90,29.96,10.0,Calm,Calm,-,N/A,,Clear,0,2013-08-16 01:35:00
8:55 PM,72.5,69.3,90,29.97,10.0,Calm,Calm,-,N/A,,Clear,0,2013-08-16 01:55:00
9:15 PM,72.1,69.8,92,29.98,7.0,Calm,Calm,-,N/A,,Clear,0,2013-08-16 02:15:00
9:35 PM,71.8,70.0,94,29.98,5.0,Calm,Calm,-,N/A,,Clear,0,2013-08-16 02:35:00
9:55 PM,71.1,69.3,94,29.98,7.0,Calm,Calm,-,N/A,,Clear,0,2013-08-16 02:55:00
10:15 PM,70.9,69.3,95,29.98,5.0,Calm,Calm,-,N/A,,Clear,0,2013-08-16 03:15:00
10:35 PM,70.9,68.5,92,29.98,10.0,Calm,Calm,-,N/A,,Clear,0,2013-08-16 03:35:00
10:55 PM,70.9,68.4,92,29.98,10.0,Calm,Calm,-,N/A,,Clear,0,2013-08-16 03:55:00
11:15 PM,70.0,68.2,94,29.98,5.0,Calm,Calm,-,N/A,,Clear,0,2013-08-16 04:15:00
11:35 PM,69.3,67.6,95,29.98,5.0,Calm,Calm,-,N/A,,Clear,0,2013-08-16 04:35:00
11:55 PM,69.4,68.0,95,29.98,5.0,Calm,Calm,-,N/A,,Clear,0,2013-08-16 04:55:00